525  
ASUS43 KFSD 130010  
RWRSD  
 
WEATHER ROUNDUP FOR SOUTH DAKOTA  
NATIONAL WEATHER SERVICE SIOUX FALLS SD  
700 PM CDT WED AUG 12 2020  
 
NOTE: "FAIR" INDICATES FEW OR NO CLOUDS BELOW 12,000 FEET WITH NO  
SIGNIFICANT WEATHER AND/OR S TO VISIBILITY
.  
 
 
SDZ001>005-009-010-012>017-130100-  
NORTHWEST AND NORTH CENTRAL SOUTH DAKOTA  
 
CITY SKY/WX TMP DP RH WIND PRES REMARKS
 
BUFFALO N/A 95 48 20 VRB5 29.71S  
FAITH N/A 89 63 41 E14G24 29.74S  
MOBRIDGE SUNNY 89 70 53 SE18G30 29.74F  

 
 
SDZ012>016-024>037-041>051-057-063-072>074-130100-  
SOUTHWEST AND SOUTH CENTRAL SOUTH DAKOTA  
 
CITY SKY/WX TMP DP RH WIND PRES REMARKS
 
RAPID CTY ARPT PTSUNNY 89 48 24 NE12 29.75S  
PIERRE SUNNY 93 60 33 S17G30 29.73S  
CUSTER PTSUNNY 83 36 18 S8G17 30.00R  
ELLSWORTH AFB PTSUNNY 97 38 13 E6 29.75F  
PHILIP MOSUNNY 93 62 35 S16 29.70R  
PINE RIDGE CLOUDY 83 44 25 SE20G35 29.85F  
SPEARFISH FAIR 91 48 22 E6 29.83R  
WINNER FAIR 84 65 52 SE14 29.81F  

 
 
SDZ004>011-016>023-039-040-130100-  
NORTHEAST SOUTH DAKOTA  
 
CITY SKY/WX TMP DP RH WIND PRES REMARKS
 
ABERDEEN SUNNY 87 71 58 SE8 29.82S  
WATERTOWN MOSUNNY 83 72 69 S9 29.87F  
BROOKINGS MOSUNNY 84 72 67 S9 29.88S  
SISSETON N/A 72 66 81 E13 29.89S  

 
 
SDZ017-020-022-023-036>040-048>070-130100-  
SOUTHEAST SOUTH DAKOTA  
 
CITY SKY/WX TMP DP RH WIND PRES REMARKS
 
SIOUX FALLS MOSUNNY 84 72 67 S20G25 29.88S  
HURON SUNNY 86 72 62 S13 29.81S  
CHAMBERLAIN SUNNY 82 72 72 SE8 29.81S  
MADISON FAIR 81 73 78 S12G17 29.88F  
MITCHELL SUNNY 87 69 54 S12 29.82F  
YANKTON MOSUNNY 86 71 60 SE16 29.87F  

 
 
ABBREVIATIONS USED IN REMARKS  
TC - TEMPERATURE IN CELSIUS  
WCI - WIND CHILL INDEX  
HX - HEAT INDEX  
VSB - VISIBILITY  
 
 
 
CLICK HERE TO GO TO PREVIOUS BULLETINS.

The Nexlab SD Page Main Text Page